Sturgis, MI

8:13 AM EDT on July 23, 2017 (GMT -0400)
Kirsch Municipal

Weather History for KIRS - April, 2014

Change the Weather History Date:

Wednesday, April 2, 2014

  Actual Average (KHAI) Record (KHAI)
Temperature  
Mean Temperature 42 °F -  
Max Temperature 53 °F 52 °F 81 °F (1963)
Min Temperature 32 °F 32 °F 22 °F (1961)
Degree Days  
Heating Degree Days 22    
Moisture  
Dew Point 28 °F    
Average Humidity 53    
Maximum Humidity 81    
Minimum Humidity 35    
Precipitation  
Precipitation 0.00 in - - ()
Sea Level Pressure  
Sea Level Pressure 30.10 in    
Wind  
Wind Speed 3 mph (North)    
Max Wind Speed 12 mph    
Max Gust Speed -    
Visibility 10 miles    
Events      
Averages and records for this station are not official NWS values.
T = Trace of Precipitation, MM = Missing Value Source: NWS Daily Summary

Daily Weather History Graph

Daily Weather History Graph

Search for Another Location

Airport or City:

Trip Planner

Search our weather history database for the weather conditions in past years. The results will help you decide how hot, cold, wet, or windy it might be!

Date:

Astronomy

Apr. 02, 2014 Rise Set
Actual Time 7:22 AM EDT 8:08 PM EDT
Civil Twilight 6:54 AM EDT 8:36 PM EDT
Nautical Twilight 6:21 AM EDT 9:09 PM EDT
Astronomical Twilight 5:46 AM EDT 9:44 PM EDT
Moon 9:04 AM EDT (4/2) 11:33 PM EDT (4/2)
Length of Visible Light 13h 41m
Length of Day
12h 45m
Waxing Crescent, 10% of the Moon is Illuminated
Apr 2
Waxing Crescent
Apr 7
First Quarter
Apr 15
Full
Apr 22
Last Quarter
Apr 29
New

Hourly Weather History & Observations

Time (EDT) Temp. Windchill Dew Point Humidity Pressure Visibility Wind Dir Wind Speed Gust Speed Precip Events Conditions
12:14 AM 42.8 °F 38.6 °F 28.4 °F 57% 30.05 in 10.0 mi West 6.9 mph - N/A   Clear
12:35 AM 42.8 °F 40.1 °F 28.4 °F 57% 30.05 in 10.0 mi West 4.6 mph - N/A   Clear
12:55 AM 42.8 °F 40.1 °F 28.4 °F 57% 30.03 in 10.0 mi NW 4.6 mph - N/A   Mostly Cloudy
1:15 AM 41.0 °F 36.4 °F 28.4 °F 61% 30.06 in 10.0 mi WSW 6.9 mph - N/A   Scattered Clouds
1:35 AM 41.0 °F 37.1 °F 28.4 °F 61% 30.06 in 10.0 mi West 5.8 mph - N/A   Scattered Clouds
1:54 AM 39.2 °F 37.0 °F 28.4 °F 65% 30.06 in 10.0 mi West 3.5 mph - N/A   Clear
2:15 AM 41.0 °F 39.0 °F 28.4 °F 61% 30.06 in 10.0 mi West 3.5 mph - N/A   Scattered Clouds
2:35 AM 41.0 °F 38.0 °F 28.4 °F 61% 30.05 in 10.0 mi NW 4.6 mph - N/A   Clear
2:54 AM 41.0 °F 38.0 °F 28.4 °F 61% 30.06 in 10.0 mi WNW 4.6 mph - N/A   Clear
3:15 AM 39.2 °F 35.0 °F 28.4 °F 65% 30.07 in 10.0 mi WNW 5.8 mph - N/A   Scattered Clouds
3:34 AM 39.2 °F 34.2 °F 28.4 °F 65% 30.06 in 10.0 mi NNW 6.9 mph - N/A   Mostly Cloudy
3:55 AM 39.2 °F 35.9 °F 28.4 °F 65% 30.06 in 10.0 mi WNW 4.6 mph - N/A   Mostly Cloudy
4:15 AM 39.2 °F - 28.4 °F 65% 30.06 in 10.0 mi Calm Calm - N/A   Mostly Cloudy
4:34 AM 37.4 °F - 28.4 °F 70% 30.07 in 10.0 mi Calm Calm - N/A   Mostly Cloudy
4:55 AM 37.4 °F 34.9 °F 28.4 °F 70% 30.08 in 10.0 mi NNW 3.5 mph - N/A   Mostly Cloudy
5:15 AM 37.4 °F 34.9 °F 26.6 °F 65% 30.08 in 10.0 mi North 3.5 mph - N/A   Scattered Clouds
5:34 AM 35.6 °F 32.8 °F 26.6 °F 70% 30.08 in 10.0 mi NNW 3.5 mph - N/A   Scattered Clouds
5:55 AM 35.6 °F - 26.6 °F 70% 30.09 in 10.0 mi Calm Calm - N/A   Clear
6:15 AM 35.6 °F - 26.6 °F 70% 30.09 in 10.0 mi Calm Calm - N/A   Clear
6:34 AM 35.6 °F - 26.6 °F 70% 30.10 in 10.0 mi Calm Calm - N/A   Clear
6:55 AM 33.8 °F - 28.4 °F 81% 30.10 in 10.0 mi Calm Calm - N/A   Clear
7:15 AM 32.0 °F - 26.6 °F 80% 30.11 in 10.0 mi Calm Calm - N/A   Clear
8:55 AM 35.6 °F 32.8 °F 28.4 °F 75% 30.14 in 10.0 mi NE 3.5 mph - N/A   Clear
9:14 AM 35.6 °F 30.7 °F 28.4 °F 75% 30.14 in 10.0 mi ENE 5.8 mph - N/A   Clear
9:35 AM 37.4 °F 32.8 °F 28.4 °F 70% 30.14 in 10.0 mi ENE 5.8 mph - N/A   Clear
9:55 AM 37.4 °F 33.8 °F 26.6 °F 65% 30.14 in 10.0 mi East 4.6 mph - N/A   Clear
10:14 AM 39.2 °F - 26.6 °F 61% 30.15 in 10.0 mi Calm Calm - N/A   Clear
10:35 AM 39.2 °F - 26.6 °F 61% 30.15 in 10.0 mi Calm Calm - N/A   Clear
10:55 AM 42.8 °F 41.1 °F 26.6 °F 53% 30.16 in 10.0 mi SE 3.5 mph - N/A   Clear
11:14 AM 42.8 °F - 26.6 °F 53% 30.16 in 10.0 mi Calm Calm - N/A   Clear
11:35 AM 42.8 °F - 26.6 °F 53% 30.15 in 10.0 mi Calm Calm - N/A   Clear
11:55 AM 44.6 °F - 28.4 °F 53% 30.15 in 10.0 mi Calm Calm - N/A   Clear
12:15 PM 44.6 °F - 26.6 °F 49% 30.16 in 10.0 mi Calm Calm - N/A   Clear
12:35 PM 44.6 °F - 28.4 °F 53% 30.15 in 10.0 mi Calm Calm - N/A   Clear
12:54 PM 46.4 °F - 28.4 °F 50% 30.15 in 10.0 mi Calm Calm - N/A   Clear
1:15 PM 46.4 °F - 28.4 °F 50% 30.16 in 10.0 mi Calm Calm - N/A   Clear
1:54 PM 46.4 °F - 28.4 °F 50% 30.14 in 10.0 mi Calm Calm - N/A   Clear
2:15 PM 46.4 °F - 28.4 °F 50% 30.14 in 10.0 mi Calm Calm - N/A   Clear
2:35 PM 48.2 °F - 28.4 °F 46% 30.14 in 10.0 mi Calm Calm - N/A   Clear
2:54 PM 48.2 °F - 28.4 °F 46% 30.13 in 10.0 mi Calm Calm - N/A   Clear
3:15 PM 48.2 °F - 28.4 °F 46% 30.13 in 10.0 mi Calm Calm - N/A   Clear
3:35 PM 50.0 °F - 28.4 °F 43% 30.13 in 10.0 mi Calm Calm - N/A   Clear
3:54 PM 51.8 °F - 28.4 °F 41% 30.12 in 10.0 mi Calm Calm - N/A   Clear
4:15 PM 51.8 °F - 28.4 °F 41% 30.11 in 10.0 mi Calm Calm - N/A   Clear
4:35 PM 51.8 °F - 26.6 °F 38% 30.10 in 10.0 mi Calm Calm - N/A   Clear
4:54 PM 51.8 °F - 26.6 °F 38% 30.10 in 10.0 mi Calm Calm - N/A   Clear
5:15 PM 51.8 °F - 28.4 °F 41% 30.10 in 10.0 mi Calm Calm - N/A   Clear
5:35 PM 51.8 °F - 26.6 °F 38% 30.09 in 10.0 mi Calm Calm - N/A   Clear
5:54 PM 51.8 °F - 26.6 °F 38% 30.09 in 10.0 mi North 4.6 mph - N/A   Clear
6:15 PM 53.6 °F - 26.6 °F 35% 30.09 in 10.0 mi Calm Calm - N/A   Scattered Clouds
6:35 PM 51.8 °F - 26.6 °F 38% 30.10 in 10.0 mi Calm Calm - N/A   Scattered Clouds
6:54 PM 51.8 °F - 26.6 °F 38% 30.10 in 10.0 mi Calm Calm - N/A   Mostly Cloudy
7:15 PM 51.8 °F - 26.6 °F 38% 30.10 in 10.0 mi Calm Calm - N/A   Mostly Cloudy
7:35 PM 51.8 °F - 26.6 °F 38% 30.11 in 10.0 mi Calm Calm - N/A   Mostly Cloudy
7:55 PM 50.0 °F - 28.4 °F 43% 30.10 in 10.0 mi Calm Calm - N/A   Overcast
8:15 PM 48.2 °F - 28.4 °F 46% 30.10 in 10.0 mi ENE 4.6 mph - N/A   Overcast
8:34 PM 48.2 °F - 26.6 °F 43% 30.09 in 10.0 mi NE 4.6 mph - N/A   Overcast
8:55 PM 48.2 °F - 24.8 °F 40% 30.09 in 10.0 mi ENE 4.6 mph - N/A   Overcast
9:15 PM 50.0 °F - 24.8 °F 37% 30.10 in 10.0 mi NE 5.8 mph - N/A   Overcast
9:34 PM 48.2 °F - 26.6 °F 43% 30.09 in 10.0 mi ENE 8.1 mph - N/A   Overcast
9:55 PM 48.2 °F - 26.6 °F 43% 30.10 in 10.0 mi ENE 8.1 mph - N/A   Overcast
10:15 PM 48.2 °F - 26.6 °F 43% 30.10 in 10.0 mi NE 6.9 mph - N/A   Overcast
10:34 PM 48.2 °F - 26.6 °F 43% 30.09 in 10.0 mi NE 9.2 mph - N/A   Overcast
10:55 PM 48.2 °F - 28.4 °F 46% 30.10 in 10.0 mi ENE 9.2 mph - N/A   Overcast
11:15 PM 48.2 °F - 28.4 °F 46% 30.09 in 10.0 mi ENE 11.5 mph - N/A   Overcast
11:34 PM 48.2 °F - 28.4 °F 46% 30.09 in 10.0 mi ENE 11.5 mph - N/A   Overcast